Regional Weather Roundup
Issued by NWS State College, PA

Home | Current Version | Previous Version | Text Only | Print | Product List | Glossary Off
Versions: 1 2 3 4 5 6 7 8 9 10 11 12 13 14 15 16 17 18 19 20 21 22 23 24 25 26 27 28 29 30 31 32 33 34 35 36 37 38 39 40 41 42 43 44 45 46 47 48 49 50

039
ASUS41 KCTP 270103
RWRCTP

REGIONAL WEATHER ROUNDUP
NATIONAL WEATHER SERVICE STATE COLLEGE PA
900 PM EDT WED JUL 26 2017

Note: "fair" indicates few or no clouds below 12,000 feet with no
significant weather and/or obstructions to visibility.

* = STATION THAT DOES NOT REPORT PRECIPITATION /E.G. RAIN...SNOW...ETC/
    THUNDER OR FOG.

PAZ002>004-007>009-013>016-020>023-029>032-270200-
WESTERN PENNSYLVANIA

CITY           SKY/WX    TMP DP  RH WIND       PRES   REMARKS
ERIE           PTCLDY    69  59  70 E5        30.08F
MEADVILLE      CLOUDY    70  65  84 N8        30.12R
FRANKLIN*      CLOUDY    70  59  68 CALM      30.11S
NEW CASTLE     FAIR      71  67  87 CALM      30.09S
BEAVER COUNTY  NOT AVBL
BUTLER*        CLOUDY    70  63  78 CALM      30.10R
PITTSBURGH INT CLOUDY    76  64  66 CALM      30.09R
PITTSBURGH     CLOUDY    75  58  55 W3        30.09R
INDIANA*       CLEAR     73  68  83 CALM      30.13R
LATROBE        MOCLDY    72  66  83 CALM      30.10R
WASHINGTON CO* CLOUDY    66  63  88 CALM      30.09S
$$

PAZ004>006-010>012-017>019-024>028-033>037-041-042-045-046-049>053-270200-
CENTRAL PENNSYLVANIA

CITY           SKY/WX    TMP DP  RH WIND       PRES   REMARKS
BRADFORD       CLOUDY    66  64  93 CALM      30.13F
DUBOIS         CLOUDY    69  60  73 E5        30.12S
CLEARFIELD     CLOUDY    70  62  76 CALM      30.13R
JOHNSTOWN      CLOUDY    68  62  81 S8        30.14R
ALTOONA        CLOUDY    67  64  90 SW3       30.12S
STATE COLLEGE  PTCLDY    70  59  68 CALM      30.12R
WILLIAMSPORT   CLOUDY    70  63  78 SW3       30.08S
SELINSGROVE    PTCLDY    68  67  96 CALM      30.09F
FT INDIANTOWN  MOCLDY    70  67  91 CALM      30.10S
CAPITAL CITY   PTCLDY    76  64  66 SE7       30.09S
HARRISBURG     PTCLDY    72  68  87 SE7       30.08S
YORK           CLEAR     74  66  76 VRB3      30.10S
$$

PAZ038>040-043-044-047-048-054-055-060>062-067>071-270200-
EASTERN PENNSYLVANIA

CITY           SKY/WX    TMP DP  RH WIND       PRES   REMARKS
SCRANTON       CLEAR     71  62  73 VRB7      30.11F
MOUNT POCONO   CLEAR     60  60 100 S5        30.16F
ALLENTOWN      CLOUDY    73  61  65 SE7       30.12S
QUAKERTOWN*    MOCLDY    72  63  73 SE3       30.14S
READING        PTCLDY    73  65  75 CALM      30.11R
LANCASTER      PTCLDY    71  66  84 CALM      30.11R
COATESVILLE    PTCLDY    70  64  83 SE3       30.15R
POTTSTOWN      MOCLDY    71  63  75 CALM      30.14S
BLUE BELL      PTCLDY    68  61  77 SE5       30.14S
DOYLESTOWN     MOCLDY    69  61  75 CALM      30.13S
WILLOW GROVE   NOT AVBL
NORTH PHILA    MOCLDY    72  61  68 SE10      30.15S
PHILADELPHIA   MOCLDY    71  61  70 SE9       30.14R
$$




USA.gov is the U.S. government's official web portal to all federal, state and local government web resources and services.